Weather History for Statesville, NC

Change the Weather History Date:

Sunday, October 28, 2012

  Actual Average (KHKY) Record (KHKY)
Temperature  
Mean Temperature 56 °F -  
Max Temperature 64 °F 68 °F 85 °F (1991)
Min Temperature 46 °F 45 °F 27 °F (1976)
Degree Days  
Heating Degree Days 9    
Growing Degree Days 6 (Base 50)    
Moisture  
Dew Point 44 °F    
Average Humidity 62    
Maximum Humidity 72    
Minimum Humidity 49    
Precipitation  
Precipitation 0.00 in - - ()
Sea Level Pressure  
Sea Level Pressure 29.71 in    
Wind  
Wind Speed 9 mph (NNW)    
Max Wind Speed 15 mph    
Max Gust Speed 23 mph    
Visibility 10 miles    
Events      
Averages and records for this station are not official NWS values.
T = Trace of Precipitation, MM = Missing Value Source: NWS Daily Summary

Daily Weather History Graph

Daily Weather History Graph

Search for Another Location

Airport:

Trip Planner

Search our weather history database for the weather conditions in past years. The results will help you decide how hot, cold, wet, or windy it might be!

Date:

Astronomy

Oct. 28, 2012 Rise Set
Actual Time 7:42 AM EDT 6:31 PM EDT
Civil Twilight 7:16 AM EDT 6:58 PM EDT
Nautical Twilight 6:46 AM EDT 7:28 PM EDT
Astronomical Twilight 6:16 AM EDT 7:58 PM EDT
Moon 5:48 PM EDT (10/28) 6:35 AM EDT (10/28)
Length of Visible Light 11h 41m
Length of Day
10h 49m
Waxing Gibbous, 99% of the Moon is Illuminated
Oct 28
Waxing Gibbous
Oct 29
Full
Nov 6
Last Quarter
Nov 13
New
Nov 20
First Quarter

Hourly Weather History & Observations

Time (EDT) Temp. Windchill Dew Point Humidity Pressure Visibility Wind Dir Wind Speed Gust Speed Precip Events Conditions
12:15 AM 59.0 °F - 50.0 °F 72% 29.78 in 10.0 mi North 8.1 mph - N/A   Clear
12:35 AM 59.0 °F - 48.2 °F 67% 29.79 in 10.0 mi North 8.1 mph - N/A   Clear
12:55 AM 59.0 °F - 48.2 °F 67% 29.78 in 10.0 mi North 9.2 mph - N/A   Clear
1:15 AM 59.0 °F - 48.2 °F 67% 29.78 in 10.0 mi North 11.5 mph 16.1 mph N/A   Clear
1:35 AM 59.0 °F - 48.2 °F 67% 29.78 in 10.0 mi North 9.2 mph - N/A   Clear
1:55 AM 57.2 °F - 46.4 °F 67% 29.77 in 10.0 mi North 8.1 mph - N/A   Clear
2:15 AM 57.2 °F - 46.4 °F 67% 29.77 in 10.0 mi NNW 8.1 mph - N/A   Clear
2:35 AM 57.2 °F - 46.4 °F 67% 29.76 in 10.0 mi North 8.1 mph - N/A   Clear
2:55 AM 55.4 °F - 46.4 °F 72% 29.76 in 10.0 mi North 8.1 mph - N/A   Clear
3:15 AM 55.4 °F - 46.4 °F 72% 29.75 in 10.0 mi North 8.1 mph - N/A   Clear
3:35 AM 55.4 °F - 46.4 °F 72% 29.75 in 10.0 mi North 9.2 mph - N/A   Clear
3:55 AM 55.4 °F - 46.4 °F 72% 29.74 in 10.0 mi North 6.9 mph - N/A   Clear
4:15 AM 55.4 °F - 46.4 °F 72% 29.73 in 10.0 mi North 8.1 mph - N/A   Clear
4:35 AM 55.4 °F - 46.4 °F 72% 29.73 in 10.0 mi North 10.4 mph - N/A   Clear
5:15 AM 53.6 °F - 44.6 °F 72% 29.73 in 10.0 mi North 8.1 mph - N/A   Clear
5:35 AM 53.6 °F - 44.6 °F 72% 29.74 in 10.0 mi North 8.1 mph - N/A   Clear
5:55 AM 53.6 °F - 44.6 °F 72% 29.74 in 10.0 mi NNW 6.9 mph - N/A   Clear
6:15 AM 53.6 °F - 44.6 °F 72% 29.74 in 10.0 mi North 5.8 mph - N/A   Clear
6:35 AM 53.6 °F - 44.6 °F 72% 29.73 in 10.0 mi NNW 5.8 mph - N/A   Clear
6:55 AM 55.4 °F - 44.6 °F 67% 29.73 in 10.0 mi North 8.1 mph 16.1 mph N/A   Clear
7:15 AM 53.6 °F - 44.6 °F 72% 29.72 in 10.0 mi NNW 6.9 mph - N/A   Clear
7:35 AM 53.6 °F - 44.6 °F 72% 29.72 in 10.0 mi North 6.9 mph - N/A   Clear
7:55 AM 53.6 °F - 44.6 °F 72% 29.72 in 10.0 mi North 6.9 mph - N/A   Clear
8:15 AM 53.6 °F - 44.6 °F 72% 29.72 in 10.0 mi NW 5.8 mph - N/A   Clear
8:55 AM 55.4 °F - 44.6 °F 67% 29.73 in 10.0 mi NW 4.6 mph - N/A   Clear
9:15 AM 55.4 °F - 44.6 °F 67% 29.73 in 10.0 mi NNW 5.8 mph - N/A   Clear
9:35 AM 55.4 °F - 44.6 °F 67% 29.73 in 10.0 mi NNW 5.8 mph - N/A   Clear
9:55 AM 55.4 °F - 44.6 °F 67% 29.73 in 10.0 mi NNW 5.8 mph - N/A   Clear
10:15 AM 57.2 °F - 44.6 °F 63% 29.72 in 10.0 mi North 6.9 mph - N/A   Clear
10:35 AM 59.0 °F - 46.4 °F 63% 29.72 in 10.0 mi North 5.8 mph - N/A   Clear
10:55 AM 59.0 °F - 46.4 °F 63% 29.72 in 10.0 mi North 9.2 mph 17.3 mph N/A   Clear
11:15 AM 59.0 °F - 44.6 °F 59% 29.72 in 10.0 mi North 10.4 mph 17.3 mph N/A   Clear
11:35 AM 60.8 °F - 46.4 °F 59% 29.72 in 10.0 mi North 9.2 mph - N/A   Clear
11:55 AM 60.8 °F - 46.4 °F 59% 29.71 in 10.0 mi North 10.4 mph 16.1 mph N/A   Clear
12:15 PM 60.8 °F - 46.4 °F 59% 29.70 in 10.0 mi North 6.9 mph - N/A   Clear
12:35 PM 62.6 °F - 44.6 °F 52% 29.69 in 10.0 mi North 12.7 mph 17.3 mph N/A   Unknown
12:55 PM 62.6 °F - 44.6 °F 52% 29.69 in 10.0 mi North 12.7 mph 18.4 mph N/A   Clear
1:15 PM 64.4 °F - 44.6 °F 49% 29.68 in 10.0 mi NNE 11.5 mph 16.1 mph N/A   Clear
1:35 PM 64.4 °F - 44.6 °F 49% 29.67 in 10.0 mi NNE 8.1 mph - N/A   Clear
1:55 PM 64.4 °F - 44.6 °F 49% 29.67 in 10.0 mi North 10.4 mph 17.3 mph N/A   Clear
2:15 PM 64.4 °F - 44.6 °F 49% 29.66 in 10.0 mi NNW 10.4 mph 17.3 mph N/A   Clear
2:35 PM 62.6 °F - 44.6 °F 52% 29.66 in 10.0 mi North 10.4 mph 17.3 mph N/A   Unknown
3:15 PM 62.6 °F - 44.6 °F 52% 29.65 in 10.0 mi North 10.4 mph - N/A   Unknown
3:35 PM 64.4 °F - 44.6 °F 49% 29.65 in 10.0 mi North 13.8 mph - N/A   Unknown
3:55 PM 64.4 °F - 46.4 °F 52% 29.65 in 10.0 mi NNW 6.9 mph - N/A   Mostly Cloudy
4:15 PM 64.4 °F - 44.6 °F 49% 29.65 in 10.0 mi NW 5.8 mph - N/A   Scattered Clouds
4:35 PM 64.4 °F - 44.6 °F 49% 29.65 in 10.0 mi NW 9.2 mph - N/A   Scattered Clouds
4:55 PM 64.4 °F - 44.6 °F 49% 29.66 in 10.0 mi WNW 9.2 mph - N/A   Unknown
5:15 PM 62.6 °F - 44.6 °F 52% 29.66 in 10.0 mi NNW 6.9 mph - N/A   Unknown
5:35 PM 60.8 °F - 44.6 °F 55% 29.66 in 10.0 mi NW 11.5 mph 17.3 mph N/A   Unknown
5:55 PM 60.8 °F - 42.8 °F 52% 29.67 in 10.0 mi NW 11.5 mph 18.4 mph N/A   Overcast
6:15 PM 59.0 °F - 42.8 °F 55% 29.68 in 10.0 mi NNW 13.8 mph 21.9 mph N/A   Overcast
6:35 PM 57.2 °F - 42.8 °F 59% 29.68 in 10.0 mi NNW 12.7 mph 19.6 mph N/A   Unknown
6:55 PM 55.4 °F - 42.8 °F 63% 29.69 in 10.0 mi NNW 12.7 mph 19.6 mph N/A   Unknown
7:15 PM 55.4 °F - 41.0 °F 58% 29.69 in 10.0 mi NNW 8.1 mph 18.4 mph N/A   Overcast
7:35 PM 55.4 °F - 41.0 °F 58% 29.70 in 10.0 mi NW 8.1 mph - N/A   Overcast
7:55 PM 53.6 °F - 41.0 °F 62% 29.70 in 10.0 mi NNW 15.0 mph 18.4 mph N/A   Overcast
8:15 PM 53.6 °F - 39.2 °F 58% 29.70 in 10.0 mi NW 12.7 mph 20.7 mph N/A   Overcast
8:55 PM 51.8 °F - 37.4 °F 58% 29.71 in 10.0 mi NW 11.5 mph 17.3 mph N/A   Light Drizzle
9:15 PM 50.0 °F - 39.2 °F 66% 29.72 in 10.0 mi NW 15.0 mph 19.6 mph N/A   Drizzle
9:35 PM 48.2 °F - 37.4 °F 66% 29.72 in 10.0 mi NW 11.5 mph - N/A   Overcast
9:55 PM 48.2 °F - 37.4 °F 66% 29.72 in 10.0 mi NW 8.1 mph - N/A   Overcast
10:15 PM 48.2 °F - 35.6 °F 62% 29.72 in 10.0 mi NW 11.5 mph 19.6 mph N/A   Overcast
10:35 PM 48.2 °F - 35.6 °F 62% 29.72 in 10.0 mi NW 13.8 mph 19.6 mph N/A   Overcast
10:55 PM 48.2 °F - 35.6 °F 62% 29.71 in 10.0 mi NW 10.4 mph 23.0 mph N/A   Overcast
11:15 PM 48.2 °F - 33.8 °F 58% 29.71 in 10.0 mi NW 12.7 mph 19.6 mph N/A   Overcast
11:35 PM 46.4 °F 40.7 °F 33.8 °F 62% 29.71 in 10.0 mi NW 12.7 mph 17.3 mph N/A   Overcast